User: anonymous   Login
Location: Delettes
(50.6178°N, 2.2123°E)
Time: 21:20:42
(UTC+00:00)
Language:

HJ-1C - Orbit

View from above orbital plane
View from above orbital plane
View from above satellite
View from above satellite

Ground track
Ground track

The orbit data is extracted from the following two-line orbital elements,

1 38997U 12064A   20158.53698678  .00002151  00000-0  51850-4 0  9999
2 38997  97.1534 188.8863 0011242  54.1177 102.4304 15.42278737424105
Epoch (UTC): 06 June 2020 12:53:15
Eccentricity: 0.0011242
inclination: 97.1534°
perigee height: 432 km
apogee height: 447 km
right ascension of ascending node: 188.8863°
argument of perigee: 54.1177°
revolutions per day: 15.42278737
mean anomaly at epoch: 102.4304°
orbit number at epoch: 42410

The dashed part of the orbit path shows where the satellite is in the earth's shadow,  

DLR